Sacramento, CA

12:56 PM PDT on July 26, 2017 (GMT -0700)
Sacramento Executive

Weather History for KSAC - September, 2013

Change the Weather History Date:

Monday, September 16, 2013

  Actual Average Record
Temperature  
Mean Temperature 74 °F -  
Max Temperature 88 °F 87 °F 102 °F (1979)
Min Temperature 59 °F 56 °F 48 °F (2006)
Degree Days  
Heating Degree Days 0    
Cooling Degree Days 9    
Growing Degree Days 23 (Base 50)    
Moisture  
Dew Point 55 °F    
Average Humidity 58    
Maximum Humidity 90    
Minimum Humidity 26    
Precipitation  
Precipitation 0.00 in 0.01 in 1.79 in (1989)
Month to date precipitation 0.10 0.12  
Year to date precipitation 4.01 12.07  
Since 1 July precipitation 0.10  
Sea Level Pressure  
Sea Level Pressure 29.81 in    
Wind  
Wind Speed 5 mph (South)    
Max Wind Speed 9 mph    
Max Gust Speed 16 mph    
Visibility 10 miles    
Events      
T = Trace of Precipitation, MM = Missing Value Source: NWS Daily Summary

Daily Weather History Graph

Daily Weather History Graph

Search for Another Location

Airport or City:

Trip Planner

Search our weather history database for the weather conditions in past years. The results will help you decide how hot, cold, wet, or windy it might be!

Date:

Astronomy

Sep. 16, 2013 Rise Set
Actual Time 6:48 AM PDT 7:11 PM PDT
Civil Twilight 6:22 AM PDT 7:38 PM PDT
Nautical Twilight 5:50 AM PDT 8:09 PM PDT
Astronomical Twilight 5:19 AM PDT 8:41 PM PDT
Moon 5:23 PM PDT (9/16) 3:42 AM PDT (9/16)
Length of Visible Light 13h 16m
Length of Day
12h 23m
Waxing Gibbous, 91% of the Moon is Illuminated
Sep 16
Waxing Gibbous
Sep 19
Full
Sep 26
Last Quarter
Oct 4
New
Oct 11
First Quarter

Hourly Weather History & Observations

Time (PDT) Temp. Heat Index Dew Point Humidity Pressure Visibility Wind Dir Wind Speed Gust Speed Precip Events Conditions
12:53 AM 62.1 °F - 55.9 °F 80% 29.82 in 10.0 mi SSE 4.6 mph - N/A   Clear
1:53 AM 62.1 °F - 57.0 °F 84% 29.83 in 10.0 mi SSE 4.6 mph - N/A   Clear
2:53 AM 61.0 °F - 57.0 °F 87% 29.83 in 10.0 mi SSE 4.6 mph - N/A   Clear
3:53 AM 60.1 °F - 55.9 °F 86% 29.83 in 10.0 mi SE 3.5 mph - N/A   Clear
4:53 AM 60.1 °F - 55.9 °F 86% 29.83 in 10.0 mi SE 4.6 mph - N/A   Clear
5:53 AM 60.1 °F - 55.9 °F 86% 29.83 in 10.0 mi SSE 4.6 mph - N/A   Clear
6:53 AM 59.0 °F - 55.9 °F 90% 29.84 in 10.0 mi Variable 3.5 mph - N/A   Clear
7:53 AM 61.0 °F - 55.9 °F 83% 29.86 in 10.0 mi SSE 4.6 mph - N/A   Clear
8:13 AM 60.8 °F - 57.2 °F 88% 29.86 in 10.0 mi South 3.5 mph - N/A   Partly Cloudy
8:53 AM 63.0 °F - 57.0 °F 81% 29.86 in 10.0 mi Calm Calm - N/A   Clear
9:53 AM 66.9 °F - 57.0 °F 70% 29.87 in 10.0 mi SSE 5.8 mph - N/A   Clear
10:53 AM 71.1 °F - 55.0 °F 57% 29.87 in 10.0 mi SSW 3.5 mph - N/A   Clear
11:53 AM 77.0 °F - 55.9 °F 48% 29.86 in 10.0 mi Calm Calm - N/A   Clear
12:53 PM 80.1 °F 80.2 °F 55.9 °F 43% 29.85 in 10.0 mi North 3.5 mph - N/A   Clear
1:53 PM 82.0 °F 81.2 °F 53.1 °F 37% 29.82 in 10.0 mi Calm Calm - N/A   Clear
2:53 PM 86.0 °F 84.0 °F 53.1 °F 32% 29.79 in 10.0 mi West 4.6 mph - N/A   Clear
3:53 PM 86.0 °F - 51.1 °F 30% 29.76 in 10.0 mi SW 6.9 mph - N/A   Clear
4:53 PM 87.1 °F - 48.9 °F 27% 29.75 in 10.0 mi West 3.5 mph - N/A   Clear
5:53 PM 84.9 °F - 52.0 °F 32% 29.74 in 10.0 mi South 3.5 mph - N/A   Clear
6:53 PM 79.0 °F - 54.0 °F 42% 29.73 in 10.0 mi SSW 8.1 mph - N/A   Clear
7:53 PM 73.9 °F - 53.1 °F 48% 29.73 in 10.0 mi SSW 8.1 mph - N/A   Clear
8:53 PM 71.1 °F - 53.1 °F 53% 29.74 in 10.0 mi SSW 10.4 mph 16.1 mph N/A   Clear
9:53 PM 68.0 °F - 53.1 °F 59% 29.76 in 10.0 mi Variable 5.8 mph - N/A   Clear
10:53 PM 66.0 °F - 53.1 °F 63% 29.76 in 10.0 mi South 9.2 mph - N/A   Clear
11:53 PM 64.9 °F - 53.1 °F 65% 29.76 in 10.0 mi South 8.1 mph - N/A   Clear